Time,TemperatureF,DewpointF,PressureIn,WindDirection,WindDirectionDegrees,WindSpeedMPH,WindSpeedGustMPH,Humidity,HourlyPrecipIn,Conditions,Clouds,dailyrainin,SoftwareType,DateUTC
2013-01-02 00:02:00,29.0,-99.9,-100.00,NW,315,5.0,8.0,-999,-99.99,,,-99.99,,2013-01-02 08:02:00,
2013-01-02 00:12:00,29.0,-99.9,-100.00,NW,315,5.0,8.0,-999,-99.99,,,-99.99,,2013-01-02 08:12:00,
2013-01-02 01:02:00,29.0,-99.9,-100.00,NNW,340,6.0,8.0,-999,-99.99,,,-99.99,,2013-01-02 09:02:00,
2013-01-02 01:12:00,29.0,-99.9,-100.00,NNW,340,6.0,8.0,-999,-99.99,,,-99.99,,2013-01-02 09:12:00,
2013-01-02 02:02:00,29.0,-99.9,-100.00,North,350,6.0,10.0,-999,-99.99,,,-99.99,,2013-01-02 10:02:00,
2013-01-02 02:12:00,29.0,-99.9,-100.00,North,350,6.0,10.0,-999,-99.99,,,-99.99,,2013-01-02 10:12:00,
2013-01-02 02:53:00,29.0,-99.9,-100.00,NNW,337,6.0,9.0,-999,-99.99,,,-99.99,,2013-01-02 10:53:00,
2013-01-02 03:02:00,29.0,-99.9,-100.00,NNW,337,6.0,9.0,-999,-99.99,,,-99.99,,2013-01-02 11:02:00,
2013-01-02 03:12:00,29.0,-99.9,-100.00,NNW,337,6.0,9.0,-999,-99.99,,,-99.99,,2013-01-02 11:12:00,
2013-01-02 03:53:00,29.0,-99.9,-100.00,NNW,328,5.0,7.0,-999,-99.99,,,-99.99,,2013-01-02 11:53:00,
2013-01-02 04:03:00,29.0,-99.9,-100.00,NNW,328,5.0,7.0,-999,-99.99,,,-99.99,,2013-01-02 12:03:00,
2013-01-02 04:12:00,29.0,-99.9,-100.00,NNW,328,5.0,7.0,-999,-99.99,,,-99.99,,2013-01-02 12:12:00,
2013-01-02 04:53:00,29.0,-99.9,-100.00,North,351,5.0,7.0,-999,-99.99,,,-99.99,,2013-01-02 12:53:00,
2013-01-02 05:03:00,29.0,-99.9,-100.00,North,351,5.0,7.0,-999,-99.99,,,-99.99,,2013-01-02 13:03:00,
2013-01-02 05:13:00,29.0,-99.9,-100.00,North,351,5.0,7.0,-999,-99.99,,,-99.99,,2013-01-02 13:13:00,
2013-01-02 06:03:00,29.0,-99.9,-100.00,NNE,17,5.0,7.0,-999,-99.99,,,-99.99,,2013-01-02 14:03:00,
2013-01-02 06:13:00,29.0,-99.9,-100.00,NNE,17,5.0,7.0,-999,-99.99,,,-99.99,,2013-01-02 14:13:00,
2013-01-02 07:03:00,28.0,-99.9,-100.00,North,1,6.0,10.0,-999,-99.99,,,-99.99,,2013-01-02 15:03:00,
2013-01-02 07:12:00,28.0,-99.9,-100.00,North,1,6.0,10.0,-999,-99.99,,,-99.99,,2013-01-02 15:12:00,
2013-01-02 08:03:00,28.0,-99.9,-100.00,North,1,5.0,8.0,-999,-99.99,,,-99.99,,2013-01-02 16:03:00,
2013-01-02 08:13:00,28.0,-99.9,-100.00,North,1,5.0,8.0,-999,-99.99,,,-99.99,,2013-01-02 16:13:00,
2013-01-02 09:04:00,28.0,-99.9,-100.00,NNW,341,7.0,12.0,-999,-99.99,,,-99.99,,2013-01-02 17:04:00,
2013-01-02 09:13:00,28.0,-99.9,-100.00,NNW,341,7.0,12.0,-999,-99.99,,,-99.99,,2013-01-02 17:13:00,
2013-01-02 10:03:00,28.0,-99.9,-100.00,North,350,7.0,12.0,-999,-99.99,,,-99.99,,2013-01-02 18:03:00,
2013-01-02 10:13:00,28.0,-99.9,-100.00,North,350,7.0,12.0,-999,-99.99,,,-99.99,,2013-01-02 18:13:00,
2013-01-02 11:03:00,29.0,-99.9,-100.00,NNW,336,7.0,12.0,-999,-99.99,,,-99.99,,2013-01-02 19:03:00,
2013-01-02 11:13:00,29.0,-99.9,-100.00,NNW,336,7.0,12.0,-999,-99.99,,,-99.99,,2013-01-02 19:13:00,
2013-01-02 12:03:00,29.0,-99.9,-100.00,NW,326,7.0,12.0,-999,-99.99,,,-99.99,,2013-01-02 20:03:00,
2013-01-02 12:12:00,29.0,-99.9,-100.00,NW,326,7.0,12.0,-999,-99.99,,,-99.99,,2013-01-02 20:12:00,
2013-01-02 13:03:00,29.0,-99.9,-100.00,NNW,341,7.0,10.0,-999,-99.99,,,-99.99,,2013-01-02 21:03:00,
2013-01-02 13:13:00,29.0,-99.9,-100.00,NNW,341,7.0,10.0,-999,-99.99,,,-99.99,,2013-01-02 21:13:00,
2013-01-02 14:03:00,30.0,-99.9,-100.00,NNW,346,7.0,13.0,-999,-99.99,,,-99.99,,2013-01-02 22:03:00,
2013-01-02 14:13:00,30.0,-99.9,-100.00,NNW,346,7.0,13.0,-999,-99.99,,,-99.99,,2013-01-02 22:13:00,
2013-01-02 15:03:00,30.0,-99.9,-100.00,NNW,348,7.0,12.0,-999,-99.99,,,-99.99,,2013-01-02 23:03:00,
2013-01-02 15:13:00,30.0,-99.9,-100.00,NNW,348,7.0,12.0,-999,-99.99,,,-99.99,,2013-01-02 23:13:00,
2013-01-02 15:53:00,30.0,-99.9,-100.00,NW,320,7.0,12.0,-999,-99.99,,,-99.99,,2013-01-02 23:53:00,
2013-01-02 16:03:00,30.0,-99.9,-100.00,NW,320,7.0,12.0,-999,-99.99,,,-99.99,,2013-01-03 00:03:00,
2013-01-02 16:12:00,30.0,-99.9,-100.00,NW,320,7.0,12.0,-999,-99.99,,,-99.99,,2013-01-03 00:12:00,
2013-01-02 17:03:00,29.0,-99.9,-100.00,NW,317,6.0,10.0,-999,-99.99,,,-99.99,,2013-01-03 01:03:00,
2013-01-02 17:12:00,29.0,-99.9,-100.00,NW,317,6.0,10.0,-999,-99.99,,,-99.99,,2013-01-03 01:12:00,
2013-01-02 18:02:00,29.0,-99.9,-100.00,NNW,328,6.0,10.0,-999,-99.99,,,-99.99,,2013-01-03 02:02:00,
2013-01-02 18:12:00,29.0,-99.9,-100.00,NNW,328,6.0,10.0,-999,-99.99,,,-99.99,,2013-01-03 02:12:00,
2013-01-02 19:03:00,29.0,-99.9,-100.00,NW,315,6.0,8.0,-999,-99.99,,,-99.99,,2013-01-03 03:03:00,
2013-01-02 19:12:00,29.0,-99.9,-100.00,NW,315,6.0,8.0,-999,-99.99,,,-99.99,,2013-01-03 03:12:00,
2013-01-02 19:53:00,29.0,-99.9,-100.00,NNW,330,5.0,8.0,-999,-99.99,,,-99.99,,2013-01-03 03:53:00,
2013-01-02 20:03:00,29.0,-99.9,-100.00,NNW,330,5.0,8.0,-999,-99.99,,,-99.99,,2013-01-03 04:03:00,
2013-01-02 20:12:00,29.0,-99.9,-100.00,NNW,330,5.0,8.0,-999,-99.99,,,-99.99,,2013-01-03 04:12:00,
2013-01-02 21:04:00,29.0,-99.9,-100.00,NNW,339,6.0,9.0,-999,-99.99,,,-99.99,,2013-01-03 05:04:00,
2013-01-02 21:12:00,29.0,-99.9,-100.00,NNW,339,6.0,9.0,-999,-99.99,,,-99.99,,2013-01-03 05:12:00,
2013-01-02 22:03:00,29.0,-99.9,-100.00,North,352,6.0,10.0,-999,-99.99,,,-99.99,,2013-01-03 06:03:00,
2013-01-02 22:12:00,29.0,-99.9,-100.00,North,352,6.0,10.0,-999,-99.99,,,-99.99,,2013-01-03 06:12:00,
2013-01-02 23:02:00,29.0,-99.9,-100.00,NNW,338,6.0,10.0,-999,-99.99,,,-99.99,,2013-01-03 07:02:00,
2013-01-02 23:12:00,29.0,-99.9,-100.00,NNW,338,6.0,10.0,-999,-99.99,,,-99.99,,2013-01-03 07:12:00,